Starlink 31862

operational
NORAD ID: 59786 Int'l Des: 2024-093 Owner: SPXS Country: US Constellation: starlink
LEOCIRCULAR

关于 Starlink 31862

正在加载描述...

实时位置

正在加载3D地球...

即将过境

高度历史

Altitude vs Time

uPlot chart will show altitude changes over time

两行轨道根数

1 59786U 24093E 25308.69924330 -.00002280 00000-0 -73363-4 0 9997
2 59786 43.0014 194.4425 0001074 232.4664 127.6090 15.27581517 83588
Epoch: Nov 4, 2025 • Age: 12 hours

当前状态

高度 486.9 km
速度 7.62 km/s
星下点 -17.93°S, 48.34°E
发射日期 May 18, 2024
运行时间 1.4 years
类型 internet

技术详情

分类 Payload
质量 730.00 kg
干质量 700.00 kg
总质量 730.00 kg
长度 0.30 m
直径 4.10 m
跨度 29.00 m
形状 Box + pan
制造商 SPXS
平台类型 Starlink V2M
阶段状态 In Orbit
所有者/国家 SPXS/US

大型星座

Loading constellations...